1513782000.82,30287,6.69,73438.3,-14.15,-15.57,-15.63,0,*68
1513782002.08,30288,6.69,73440.3,-14.13,-15.21,-15.15,0,*61
1513782003.35,30289,6.69,73440.3,-14.15,-15.57,-15.57,0,*61
1513782004.62,30290,6.69,73436.0,-14.15,-15.57,-15.57,0,*69
1513782005.87,30291,6.69,73438.8,-14.13,-15.63,-15.71,0,*6D
1513782007.11,30292,6.69,73438.0,-14.15,-15.57,-15.63,0,*6C
1513782008.36,30293,6.69,73440.5,-14.15,-15.57,-15.71,0,*6E
1513782009.65,30294,6.69,73440.3,-14.13,-15.57,-15.57,0,*6B
1513782010.89,30295,6.69,73448.0,-14.15,-15.49,-15.57,0,*63
1513782012.14,30296,6.69,73444.0,-14.15,-15.57,-15.63,0,*68
1513782013.43,30297,6.69,73438.3,-14.13,-15.57,-15.57,0,*68
1513782014.72,30298,6.69,73438.3,-14.13,-15.57,-15.57,0,*67
1513782015.96,30299,6.69,73436.8,-14.15,-15.57,-15.63,0,*67
1513782017.23,30300,6.69,73440.5,-14.13,-15.49,-15.57,0,*68
1513782018.5,30301,6.69,73444.0,-14.15,-15.57,-15.57,0,*60
1513782019.75,30302,6.69,73448.8,-14.15,-15.49,-15.57,0,*6C
1513782021.04,30303,6.69,73446.3,-14.13,-15.57,-15.57,0,*64
1513782022.28,30304,6.69,73444.5,-14.15,-15.57,-15.63,0,*62
1513782023.54,30305,6.69,73444.0,-14.15,-14.97,-14.75,0,*68
1513782024.82,30306,6.69,73444.5,-14.15,-15.43,-15.43,0,*67
1513782026.11,30307,6.69,73440.3,-14.13,-15.57,-15.57,0,*60
1513782027.4,30308,6.69,73442.3,-14.13,-15.57,-15.57,0,*6F
1513782028.7,30309,6.69,73444.0,-14.13,-15.57,-15.57,0,*6E
1513782029.94,30310,6.69,73440.8,-14.15,-15.49,-15.57,0,*6F
1513782031.21,30311,6.69,73446.5,-14.13,-15.57,-15.63,0,*60
1513782032.48,30312,6.69,73444.5,-14.15,-15.57,-15.57,0,*62
1513782033.72,30313,6.69,73444.0,-14.15,-15.21,-15.29,0,*6B
1513782035.0,30314,6.69,73450.0,-14.15,-15.43,-15.43,0,*64
1513782036.29,30315,6.69,73444.3,-14.13,-15.57,-15.57,0,*63
1513782037.58,30316,6.69,73444.8,-14.13,-15.57,-15.57,0,*60
1513782038.83,30317,6.69,73448.0,-14.13,-15.49,-15.49,0,*61
1513782040.1,30318,6.69,73444.8,-14.13,-15.49,-15.57,0,*61
1513782041.38,30319,6.69,73442.0,-14.13,-15.49,-15.43,0,*65
1513782042.64,30320,6.69,73446.3,-14.15,-15.57,-15.57,0,*63
1513782043.91,30321,6.69,73444.0,-14.15,-15.57,-15.57,0,*62
1513782045.16,30322,6.69,73448.5,-14.13,-15.49,-15.49,0,*67
1513782046.39,30323,6.69,73446.8,-14.15,-15.49,-15.49,0,*60
1513782047.66,30324,6.69,73442.3,-14.13,-15.57,-15.49,0,*6E
1513782048.92,30325,6.69,73444.3,-14.13,-15.49,-15.49,0,*60
1513782050.17,30326,6.69,73444.5,-14.13,-15.49,-15.49,0,*63
1513782051.41,30327,6.69,73450.3,-14.15,-15.49,-15.43,0,*6E
1513782052.69,30328,6.69,73444.8,-14.13,-15.43,-15.49,0,*67
1513782053.96,30329,6.69,73452.3,-14.15,-15.43,-15.43,0,*6A
1513782055.24,30330,6.69,73448.0,-14.13,-15.49,-15.43,0,*6E
1513782056.51,30331,6.69,73444.8,-14.13,-15.49,-15.43,0,*6F
1513782057.81,30332,6.69,73450.8,-14.13,-15.43,-15.43,0,*66
1513782059.06,30333,6.69,73454.8,-14.13,-15.29,-15.29,0,*67
1513782060.33,30334,6.69,73454.5,-14.15,-15.43,-15.35,0,*67
1513782061.58,30335,6.69,73452.3,-14.15,-15.49,-15.43,0,*6D
1513782062.85,30336,6.69,73450.8,-14.13,-15.49,-15.43,0,*68
1513782064.1,30337,6.69,73450.3,-14.15,-15.57,-15.49,0,*6A
1513782065.35,30338,6.69,73446.8,-14.13,-15.49,-15.49,0,*6C
1513782066.64,30339,6.69,73448.5,-14.13,-15.43,-15.35,0,*6C
1513782067.92,30340,6.69,73440.0,-14.15,-15.43,-15.43,0,*65
1513782069.19,30341,6.69,73446.3,-14.13,-15.57,-15.49,0,*6D
1513782070.44,30342,6.69,73440.3,-14.15,-15.49,-15.43,0,*6D
1513782071.71,30343,6.69,73442.8,-14.15,-15.57,-15.43,0,*63
1513782072.96,30344,6.69,73440.5,-14.15,-15.49,-15.43,0,*6B
1513782074.24,30345,6.69,73444.5,-14.13,-15.43,-15.49,0,*6C
1513782075.53,30346,6.69,73448.3,-14.13,-15.35,-15.35,0,*65
1513782076.76,30347,6.69,73448.3,-14.15,-15.49,-15.49,0,*62
1513782078.01,30348,6.69,73450.3,-14.15,-15.43,-15.49,0,*67
1513782079.25,30349,6.69,73450.8,-14.15,-15.49,-15.57,0,*63
1513782080.5,30350,6.69,73446.3,-14.15,-15.57,-15.63,0,*63
1513782081.74,30351,6.69,73446.0,-14.15,-15.57,-15.63,0,*62
1513782082.98,30352,6.69,73444.8,-14.15,-15.43,-15.63,0,*64
1513782084.23,30353,6.69,73448.3,-14.15,-15.43,-15.63,0,*65
1513782085.48,30354,6.69,73448.5,-14.15,-15.57,-15.71,0,*64
1513782086.74,30355,6.69,73442.3,-14.13,-15.57,-15.63,0,*60
1513782088.01,30356,6.69,73444.0,-14.13,-15.57,-15.71,0,*60
1513782089.23,30357,6.69,73444.3,-14.15,-15.49,-15.63,0,*6B
1513782090.47,30358,6.69,73450.3,-14.15,-15.49,-15.57,0,*63
1513782091.69,30359,6.69,73452.3,-14.15,-15.49,-15.71,0,*66
1513782092.94,30360,6.69,73448.0,-14.15,-15.63,-15.85,0,*6F
1513782094.18,30361,6.69,73440.0,-14.15,-15.57,-15.63,0,*61
1513782095.43,30362,6.69,73440.3,-14.13,-15.71,-15.75,0,*67
1513782096.68,30363,6.69,73452.0,-14.13,-15.49,-15.71,0,*69
1513782097.9,30364,6.69,73446.3,-14.15,-15.63,-15.71,0,*60
1513782099.14,30365,6.69,73444.3,-14.13,-15.63,-15.75,0,*63
1513782100.36,30366,6.69,73442.0,-14.15,-15.63,-15.63,0,*61
1513782101.63,30367,6.69,73438.3,-14.13,-15.57,-15.63,0,*61
1513782102.85,30368,6.69,73442.5,-14.15,-15.63,-15.63,0,*6F
1513782104.12,30369,6.69,73442.0,-14.15,-15.57,-15.57,0,*6E
1513782105.34,30370,6.69,73446.5,-14.15,-15.49,-15.63,0,*6E
1513782106.56,30371,6.69,73448.0,-14.15,-15.15,-15.07,0,*64
1513782107.81,30372,6.69,73446.5,-14.15,-15.43,-15.49,0,*6E
1513782109.05,30373,6.69,73438.5,-14.15,-15.57,-15.63,0,*62
1513782110.3,30374,6.69,73436.0,-14.15,-15.71,-15.85,0,*69
1513782111.55,30375,6.69,73440.8,-14.15,-15.75,-15.85,0,*6C
1513782112.77,30376,6.69,73442.5,-14.15,-15.71,-15.63,0,*63
1513782114.02,30377,6.69,73440.3,-14.15,-15.71,-15.85,0,*6A
1513782115.24,30378,6.69,73442.0,-14.15,-15.75,-15.75,0,*6E
1513782116.49,30379,6.69,73440.8,-14.15,-15.85,-15.75,0,*60
1513782117.77,30380,6.69,73442.3,-14.15,-15.85,-15.85,0,*69
1513782119.04,30381,6.69,73446.8,-14.15,-15.85,-15.85,0,*68
1513782120.26,30382,6.69,73444.5,-14.15,-15.75,-15.75,0,*6B
1513782121.54,30383,6.69,73436.0,-14.15,-15.89,-15.85,0,*66
1513782122.78,30384,6.69,73442.5,-14.15,-15.99,-15.89,0,*6C
1513782124.0,30385,6.69,73444.0,-14.15,-16.03,-16.03,0,*6C
1513782125.24,30386,6.69,73438.0,-14.15,-15.63,-15.43,0,*6D
1513782126.49,30387,6.69,73442.8,-14.15,-15.99,-15.85,0,*63
1513782127.72,30388,6.69,73436.3,-14.13,-15.99,-15.99,0,*67
1513782128.97,30389,6.69,73440.0,-14.15,-15.89,-16.03,0,*61
1513782130.21,30390,6.69,73442.5,-14.15,-15.89,-15.99,0,*69
1513782131.42,30391,6.69,73440.5,-14.15,-15.99,-15.99,0,*69
1513782132.69,30392,6.69,73438.8,-14.15,-15.85,-15.89,0,*66
1513782133.94,30393,6.69,73440.5,-14.15,-15.85,-16.03,0,*66
1513782135.24,30394,6.69,73442.8,-14.13,-15.89,-16.09,0,*61
1513782136.49,30395,6.69,73440.8,-14.15,-15.85,-15.99,0,*60
1513782137.76,30396,6.69,73440.3,-14.15,-15.85,-16.09,0,*69
1513782139.0,30397,6.69,73442.5,-14.15,-15.99,-16.09,0,*65
1513782140.28,30398,6.69,73444.5,-14.15,-15.89,-16.17,0,*64
1513782141.55,30399,6.69,73440.8,-14.15,-15.89,-16.09,0,*6A
1513782142.85,30400,6.69,73446.0,-14.13,-15.89,-16.09,0,*6B
1513782144.1,30401,6.69,73436.5,-14.15,-15.85,-15.99,0,*6A
1513782145.35,30402,6.69,73438.5,-14.13,-15.71,-15.75,0,*66
1513782146.59,30403,6.69,73442.8,-14.15,-15.71,-15.85,0,*6E
1513782147.87,30404,6.69,73444.8,-14.13,-15.75,-15.85,0,*6B
1513782149.12,30405,6.69,73442.0,-14.17,-15.53,-15.75,0,*65
1513782150.36,30406,6.69,73436.3,-14.15,-15.71,-15.85,0,*6B
1513782151.61,30407,6.69,73442.5,-14.13,-15.71,-15.99,0,*61
1513782152.91,30408,6.69,73444.5,-14.17,-15.89,-16.09,0,*67
1513782154.13,30409,6.69,73440.8,-14.15,-15.75,-15.99,0,*6D
1513782155.35,30410,6.69,73444.5,-14.15,-15.75,-16.03,0,*65
1513782156.6,30411,6.69,73442.8,-14.15,-15.75,-15.89,0,*65
1513782157.85,30412,6.69,73444.0,-14.15,-15.85,-15.99,0,*68
1513782159.07,30413,6.69,73442.5,-14.15,-15.75,-15.99,0,*66
1513782160.29,30414,6.69,73442.0,-14.15,-15.75,-15.99,0,*61
1513782161.53,30415,6.69,73446.5,-14.15,-15.85,-16.03,0,*6F
1513782162.78,30416,6.69,73446.3,-14.15,-15.85,-15.99,0,*6C
1513782164.02,30417,6.69,73450.5,-14.13,-15.71,-15.99,0,*60
1513782165.29,30418,6.69,73448.5,-14.15,-15.85,-15.89,0,*63
1513782166.56,30419,6.69,73440.8,-14.15,-15.85,-15.89,0,*62
1513782167.81,30420,6.69,73438.3,-14.15,-15.71,-15.89,0,*63
1513782169.06,30421,6.69,73440.3,-14.15,-15.75,-15.85,0,*6A
1513782170.3,30422,6.69,73440.5,-14.15,-15.63,-15.85,0,*6E
1513782171.55,30423,6.69,73444.5,-14.15,-15.71,-15.85,0,*6C
1513782172.8,30424,6.69,73448.0,-14.15,-15.71,-15.85,0,*6B
1513782174.05,30425,6.69,73444.0,-14.15,-15.75,-15.85,0,*6E
1513782175.32,30426,6.69,73444.8,-14.15,-15.85,-15.85,0,*62
1513782176.57,30427,6.69,73442.5,-14.15,-15.75,-15.85,0,*6C
1513782177.82,30428,6.69,73444.3,-14.15,-15.75,-15.85,0,*63
1513782179.07,30429,6.69,73448.3,-14.15,-15.71,-15.85,0,*66
1513782180.31,30430,6.69,73446.8,-14.15,-15.71,-15.85,0,*6E
1513782181.59,30431,6.69,73442.5,-14.15,-15.85,-15.85,0,*64
1513782182.86,30432,6.69,73438.5,-14.15,-15.85,-15.89,0,*6B
1513782184.13,30433,6.69,73436.0,-14.17,-15.81,-15.95,0,*61
1513782185.4,30434,6.69,73436.8,-14.17,-15.81,-15.95,0,*66
1513782186.67,30435,6.69,73442.0,-14.15,-15.85,-15.89,0,*6C
1513782187.92,30436,6.69,73444.3,-14.15,-15.85,-16.03,0,*6E
1513782189.16,30437,6.69,73442.3,-14.15,-15.85,-15.99,0,*6F
1513782190.41,30438,6.69,73444.0,-14.15,-15.75,-15.89,0,*6E
1513782191.68,30439,6.69,73444.8,-14.15,-15.85,-15.89,0,*60
1513782192.93,30440,6.69,73446.8,-14.15,-15.75,-15.89,0,*61
1513782194.2,30441,6.69,73436.8,-14.15,-15.85,-15.89,0,*6F
1513782195.48,30442,6.69,73436.3,-14.15,-15.85,-15.85,0,*60
1513782196.73,30443,6.69,73438.0,-14.15,-15.75,-15.85,0,*6E
1513782198.0,30444,6.69,73436.3,-14.15,-15.85,-15.85,0,*66
1513782199.27,30445,6.69,73440.5,-14.15,-15.85,-15.85,0,*67
1513782200.52,30446,6.69,73438.0,-14.15,-15.75,-15.85,0,*6B
1513782201.77,30447,6.69,73442.3,-14.15,-15.71,-15.85,0,*6E
1513782203.02,30448,6.69,73440.3,-14.15,-15.85,-15.75,0,*65
1513782204.27,30449,6.69,73440.8,-14.15,-15.71,-15.85,0,*60
1513782205.51,30450,6.69,73438.5,-14.13,-15.71,-15.71,0,*65
1513782206.74,30451,6.69,73444.8,-14.15,-15.75,-15.75,0,*62
1513782207.96,30452,6.69,73440.3,-14.15,-15.71,-15.75,0,*65
1513782209.18,30453,6.69,73440.5,-14.15,-15.71,-15.75,0,*64
1513782210.41,30454,6.69,73442.0,-14.15,-15.71,-15.75,0,*63
1513782211.63,30455,6.69,73434.3,-14.15,-15.71,-15.75,0,*62
1513782212.85,30456,6.69,73442.3,-14.15,-15.71,-15.75,0,*61
1513782214.07,30457,6.69,73440.3,-14.15,-15.71,-15.71,0,*64
1513782215.31,30458,6.69,73438.8,-14.17,-15.63,-15.67,0,*6D
1513782216.59,30459,6.69,73440.5,-14.17,-15.75,-15.81,0,*63
1513782217.82,30460,6.69,73444.0,-14.15,-15.71,-15.75,0,*64
1513782219.07,30461,6.69,73446.3,-14.17,-15.75,-15.75,0,*63
1513782220.29,30462,6.69,73442.3,-14.15,-15.71,-15.71,0,*62
1513782221.53,30463,6.69,73442.3,-14.15,-15.57,-15.71,0,*67
1513782222.76,30464,6.69,73446.3,-14.15,-15.63,-15.71,0,*67
1513782224.0,30465,6.69,73442.8,-14.13,-15.71,-15.71,0,*63
1513782225.25,30466,6.69,73440.5,-14.15,-15.71,-15.85,0,*6D
1513782226.54,30467,6.69,73442.5,-14.17,-15.81,-15.89,0,*6D
1513782227.8,30468,6.69,73446.3,-14.17,-15.75,-15.95,0,*64
1513782229.08,30469,6.69,73446.3,-14.21,-15.89,-15.95,0,*63
1513782230.35,30470,6.69,73446.0,-14.17,-15.89,-15.95,0,*6E
1513782231.63,30471,6.69,73440.5,-14.17,-15.89,-15.95,0,*6F
1513782232.9,30472,6.69,73446.0,-14.17,-15.89,-16.03,0,*60
1513782234.17,30473,6.69,73442.5,-14.17,-15.53,-15.89,0,*67
1513782235.44,30474,6.69,73442.8,-14.17,-15.95,-16.13,0,*6A
1513782236.72,30475,6.69,73442.5,-14.17,-15.95,-16.13,0,*6B
1513782238.02,30476,6.69,73442.8,-14.17,-16.09,-16.65,0,*6F
1513782239.3,30477,6.69,73444.3,-14.17,-16.09,-16.55,0,*6D
1513782240.6,30478,6.69,73442.3,-14.21,-16.13,-16.51,0,*68
1513782241.9,30479,6.69,73440.0,-14.17,-16.09,-16.69,0,*6C
1513782243.19,30480,6.69,73442.8,-14.17,-16.23,-16.65,0,*6E
1513782244.46,30481,6.69,73444.8,-14.17,-16.27,-16.55,0,*68
1513782245.74,30482,6.69,73442.8,-14.17,-16.23,-16.41,0,*6A
1513782247.0,30483,6.69,73446.5,-14.17,-16.23,-16.37,0,*6A
1513782248.3,30484,6.69,73446.5,-14.17,-16.13,-16.27,0,*6F
1513782249.58,30485,6.69,73444.0,-14.17,-16.09,-16.37,0,*64
1513782250.86,30486,6.69,73440.8,-14.21,-15.95,-16.09,0,*69
1513782252.14,30487,6.69,73440.5,-14.21,-15.89,-15.95,0,*63
1513782253.41,30488,6.69,73440.3,-14.17,-15.89,-15.95,0,*69
1513782254.69,30489,6.69,73440.8,-14.17,-15.81,-15.95,0,*60
1513782255.96,30490,6.69,73446.0,-14.21,-15.81,-15.95,0,*6D
1513782257.23,30491,6.69,73442.5,-14.17,-15.81,-15.95,0,*69
1513782258.51,30492,6.69,73442.0,-14.17,-15.63,-15.81,0,*63
1513782259.8,30493,6.69,73436.0,-14.17,-15.81,-15.89,0,*66
1513782261.1,30494,6.69,73438.5,-14.21,-15.81,-15.89,0,*64
1513782262.38,30495,6.69,73438.0,-14.17,-15.75,-15.89,0,*6B
1513782263.68,30496,6.69,73438.3,-14.21,-15.81,-15.81,0,*6E
1513782264.96,30497,6.69,73436.8,-14.21,-15.75,-15.89,0,*6C
1513782266.26,30498,6.69,73440.3,-14.21,-15.81,-15.89,0,*68
1513782267.56,30499,6.69,73442.0,-14.21,-15.81,-15.89,0,*69
1513782268.83,30500,6.69,73440.8,-14.17,-15.89,-15.95,0,*68
1513782270.1,30501,6.69,73436.0,-14.17,-15.89,-16.03,0,*65
1513782271.38,30502,6.69,73438.0,-14.21,-15.89,-16.03,0,*63
1513782272.65,30503,6.69,73440.3,-14.17,-15.89,-16.03,0,*67
1513782273.93,30504,6.69,73440.5,-14.17,-15.81,-15.95,0,*64
1513782275.22,30505,6.69,73438.5,-14.17,-15.81,-16.09,0,*63
1513782276.53,30506,6.69,73442.5,-14.21,-15.81,-16.09,0,*65
1513782277.82,30507,6.69,73442.8,-14.17,-15.89,-16.23,0,*61
1513782279.12,30508,6.69,73440.8,-14.21,-15.89,-16.27,0,*6F
1513782280.4,30509,6.69,73440.8,-14.21,-15.95,-16.27,0,*63
1513782281.65,30510,6.69,73440.5,-14.21,-15.95,-16.41,0,*6B
1513782282.92,30511,6.69,73440.0,-14.17,-16.03,-16.51,0,*62
1513782284.19,30512,6.69,73436.3,-14.21,-16.03,-16.51,0,*64
1513782285.47,30513,6.69,73436.8,-14.17,-16.09,-16.55,0,*6E
1513782286.71,30514,6.69,73442.0,-14.21,-15.95,-16.37,0,*6E
1513782287.96,30515,6.69,73440.3,-14.21,-15.95,-16.37,0,*6F
1513782289.21,30516,6.69,73444.0,-14.21,-15.95,-16.37,0,*6C
1513782290.5,30517,6.69,73446.5,-14.17,-15.89,-16.51,0,*65
1513782291.75,30518,6.69,73440.3,-14.21,-16.03,-16.55,0,*6A
1513782293.05,30519,6.69,73438.5,-14.17,-16.13,-16.51,0,*6B
1513782294.32,30520,6.69,73442.5,-14.17,-15.95,-16.27,0,*6D
1513782295.6,30521,6.69,73436.0,-14.21,-15.95,-16.13,0,*6E
1513782296.88,30522,6.69,73442.3,-14.21,-15.89,-15.95,0,*6D
1513782298.18,30523,6.69,73440.5,-14.21,-15.81,-16.09,0,*62
1513782299.48,30524,6.69,73442.8,-14.17,-15.81,-16.13,0,*6B
1513782300.78,30525,6.69,73438.0,-14.21,-15.81,-16.09,0,*64
1513782302.03,30526,6.69,73438.5,-14.21,-15.75,-15.95,0,*6A
1513782303.31,30527,6.69,73440.8,-14.21,-15.81,-16.03,0,*6C
1513782304.56,30528,6.69,73442.8,-14.21,-15.75,-15.95,0,*64
1513782305.82,30529,6.69,73446.0,-14.21,-15.75,-16.03,0,*69
1513782307.12,30530,6.69,73442.3,-14.21,-15.89,-16.13,0,*63
1513782308.42,30531,6.69,73438.3,-14.21,-15.81,-16.13,0,*6A
1513782309.72,30532,6.69,73430.5,-14.17,-15.89,-16.09,0,*6F
1513782311.02,30533,6.69,73436.5,-14.21,-15.81,-16.09,0,*63
1513782312.3,30534,6.69,73442.3,-14.21,-15.81,-16.03,0,*6E
1513782313.57,30535,6.69,73442.3,-14.21,-15.81,-16.03,0,*6F
1513782314.84,30536,6.69,73442.3,-14.21,-15.81,-16.03,0,*6C
1513782316.09,30537,6.69,73442.5,-14.21,-15.67,-15.95,0,*69
1513782317.35,30538,6.69,73444.8,-14.21,-15.75,-15.95,0,*65
1513782318.62,30539,6.69,73444.3,-14.21,-15.81,-15.95,0,*6F
1513782319.9,30540,6.69,73446.0,-14.21,-15.81,-15.95,0,*61
1513782321.17,30541,6.69,73444.5,-14.17,-15.75,-15.89,0,*63
1513782322.45,30542,6.69,73446.0,-14.21,-15.67,-15.89,0,*66
1513782323.73,30543,6.69,73444.3,-14.21,-15.75,-15.89,0,*64
1513782325.03,30544,6.69,73444.0,-14.21,-15.81,-15.89,0,*68
1513782326.3,30545,6.69,73440.3,-14.21,-15.81,-16.03,0,*68
1513782327.58,30546,6.69,73444.5,-14.17,-15.89,-15.95,0,*6A
1513782328.85,30547,6.69,73446.8,-14.21,-15.89,-16.03,0,*62
1513782330.13,30548,6.69,73448.5,-14.21,-15.81,-15.95,0,*69
1513782331.41,30549,6.69,73446.8,-14.21,-15.89,-16.03,0,*6C
1513782332.71,30550,6.69,73452.5,-14.21,-15.89,-16.09,0,*6E
1513782334.02,30551,6.69,73450.3,-14.21,-15.89,-16.09,0,*6F
1513782335.29,30552,6.69,73438.8,-14.21,-16.03,-16.27,0,*61
1513782336.59,30553,6.69,73442.3,-14.21,-16.13,-16.23,0,*65
1513782337.84,30554,6.69,73442.5,-14.23,-15.99,-16.17,0,*66
1513782339.08,30555,6.69,73440.0,-14.23,-15.99,-16.13,0,*63
1513782340.36,30556,6.69,73444.3,-14.23,-16.09,-16.13,0,*6A
1513782341.64,30557,6.69,73442.0,-14.21,-15.89,-15.95,0,*6F
1513782342.86,30558,6.69,73440.8,-14.23,-15.95,-15.99,0,*63
1513782344.14,30559,6.69,73440.3,-14.23,-16.09,-16.13,0,*65
1513782345.42,30560,6.69,73446.3,-14.23,-16.09,-16.13,0,*6F
1513782346.71,30561,6.69,73444.0,-14.23,-16.13,-16.17,0,*61
1513782347.99,30562,6.69,73440.0,-14.23,-16.13,-16.17,0,*62
1513782349.26,30563,6.69,73446.5,-14.21,-16.03,-16.13,0,*64
1513782350.54,30564,6.69,73448.8,-14.21,-15.89,-15.95,0,*6F
1513782351.85,30565,6.69,73446.0,-14.21,-16.13,-16.13,0,*63
1513782353.12,30566,6.69,73450.8,-14.21,-16.23,-16.37,0,*65
1513782354.39,30567,6.69,73450.0,-14.21,-16.27,-16.37,0,*60
1513782355.65,30568,6.69,73444.3,-14.21,-16.41,-16.41,0,*6E
1513782356.92,30569,6.69,73444.5,-14.21,-16.41,-16.51,0,*6E
1513782358.15,30570,6.69,73448.8,-14.23,-16.45,-16.59,0,*68
1513782359.39,30571,6.69,73448.5,-14.23,-16.55,-16.59,0,*68
1513782360.61,30572,6.69,73450.0,-14.23,-16.45,-16.75,0,*64
1513782361.85,30573,6.69,73444.0,-14.23,-16.55,-16.75,0,*64
1513782363.1,30574,6.69,73442.8,-14.23,-16.69,-16.83,0,*65
1513782364.35,30575,6.69,73440.8,-14.23,-16.69,-16.97,0,*61
1513782365.57,30576,6.69,73440.8,-14.23,-16.55,-16.89,0,*62
1513782366.79,30577,6.69,73438.8,-14.23,-16.59,-16.89,0,*6F
1513782368.04,30578,6.69,73440.0,-14.23,-16.69,-16.97,0,*6C
1513782369.29,30579,6.69,73436.8,-14.23,-16.69,-16.97,0,*6D
1513782370.51,30580,6.69,73440.5,-14.23,-16.55,-16.89,0,*6B
1513782371.74,30581,6.69,73442.5,-14.23,-16.59,-16.89,0,*66
1513782372.96,30582,6.69,73442.0,-14.23,-16.59,-16.83,0,*6F
1513782374.19,30583,6.69,73442.3,-14.23,-16.59,-16.75,0,*67
1513782375.45,30584,6.69,73446.0,-14.23,-16.55,-16.69,0,*61
1513782376.67,30585,6.69,73446.0,-14.23,-16.45,-16.55,0,*6E
1513782377.89,30586,6.69,73448.0,-14.23,-16.41,-16.45,0,*68
1513782379.15,30587,6.69,73444.3,-14.25,-16.41,-16.41,0,*6B
1513782380.4,30588,6.69,73448.5,-14.25,-16.41,-16.41,0,*64
1513782381.67,30589,6.69,73448.3,-14.25,-16.31,-16.41,0,*62
1513782382.94,30590,6.69,73442.0,-14.25,-16.31,-16.41,0,*6A
1513782384.21,30591,6.69,73440.8,-14.25,-16.27,-16.41,0,*6C
1513782385.51,30592,6.69,73444.8,-14.25,-16.27,-16.17,0,*6C
1513782386.79,30593,6.69,73446.8,-14.23,-16.13,-16.09,0,*63
1513782388.07,30594,6.69,73446.3,-14.23,-16.17,-16.13,0,*6B
1513782389.31,30595,6.69,73442.3,-14.25,-15.99,-15.99,0,*68
1513782390.55,30596,6.69,73444.5,-14.25,-15.99,-15.99,0,*6B
1513782391.81,30597,6.69,73446.0,-14.25,-15.99,-15.85,0,*67
1513782393.12,30598,6.69,73444.3,-14.25,-15.85,-15.81,0,*61
1513782394.42,30599,6.69,73438.0,-14.25,-15.85,-15.81,0,*60
1513782395.67,30600,6.69,73442.5,-14.25,-15.71,-15.71,0,*67
1513782396.94,30601,6.69,73438.5,-14.23,-15.81,-15.85,0,*64
1513782398.21,30602,6.69,73446.0,-14.25,-15.71,-15.85,0,*6E
1513782399.48,30603,6.69,73444.0,-14.25,-15.81,-15.67,0,*6C
1513782400.73,30604,6.69,73440.3,-14.23,-15.81,-15.71,0,*6A
1513782401.97,30605,6.69,73440.3,-14.23,-15.57,-15.67,0,*67
1513782403.21,30606,6.69,73436.8,-14.25,-15.67,-15.67,0,*61
1513782404.46,30607,6.69,73438.8,-14.25,-15.67,-15.67,0,*60
1513782405.73,30608,6.69,73442.0,-14.23,-15.57,-15.57,0,*69
1513782407.0,30609,6.69,73436.3,-14.25,-15.57,-15.67,0,*6D
1513782408.27,30610,6.69,73442.3,-14.25,-15.57,-15.71,0,*62
1513782409.51,30611,6.69,73440.0,-14.25,-15.67,-15.67,0,*67
1513782410.78,30612,6.69,73442.3,-14.25,-15.57,-15.71,0,*60
1513782412.03,30613,6.69,73442.0,-14.25,-15.67,-15.71,0,*62
1513782413.3,30614,6.69,73448.3,-14.25,-15.67,-15.85,0,*6E
1513782414.58,30615,6.69,73444.3,-14.25,-15.71,-15.85,0,*68
1513782415.87,30616,6.69,73446.0,-14.25,-15.81,-15.85,0,*64
1513782417.17,30617,6.69,73436.8,-14.25,-15.81,-15.85,0,*65
1513782418.45,30618,6.69,73438.3,-14.25,-15.71,-15.85,0,*65
1513782419.74,30619,6.69,73436.8,-14.25,-15.81,-15.85,0,*6B
1513782420.99,30620,6.69,73436.0,-14.27,-15.85,-15.99,0,*6A
1513782422.26,30621,6.69,73436.3,-14.27,-15.85,-15.89,0,*6A
1513782423.51,30622,6.69,73432.3,-14.27,-15.75,-15.89,0,*66
1513782424.78,30623,6.69,73438.3,-14.27,-15.85,-15.89,0,*68
1513782426.02,30624,6.69,73440.5,-14.27,-15.85,-15.99,0,*6E
1513782427.3,30625,6.69,73440.0,-14.27,-15.85,-15.89,0,*6E
1513782428.57,30626,6.69,73436.8,-14.25,-15.85,-15.95,0,*62
1513782429.84,30627,6.69,73438.3,-14.25,-15.81,-15.95,0,*67
1513782431.1,30628,6.69,73436.3,-14.25,-15.71,-15.95,0,*67
1513782432.37,30629,6.69,73440.3,-14.25,-15.81,-15.95,0,*69
1513782433.64,30630,6.69,73438.5,-14.25,-15.81,-15.95,0,*61
1513782434.86,30631,6.69,73444.3,-14.27,-15.71,-15.99,0,*61
1513782436.1,30632,6.69,73448.3,-14.27,-15.85,-15.99,0,*69
1513782437.4,30633,6.69,73436.5,-14.25,-15.81,-15.85,0,*63
1513782438.68,30634,6.69,73440.8,-14.25,-15.67,-15.81,0,*68
1513782439.95,30635,6.69,73436.0,-14.25,-15.81,-15.95,0,*64
1513782441.19,30636,6.69,73436.3,-14.25,-15.71,-15.99,0,*64
1513782442.42,30637,6.69,73436.8,-14.27,-15.75,-15.99,0,*63
1513782443.64,30638,6.69,73434.8,-14.27,-15.75,-15.99,0,*6C
1513782444.91,30639,6.69,73444.8,-14.25,-15.81,-15.95,0,*68
1513782446.18,30640,6.69,73446.8,-14.25,-15.81,-15.95,0,*66
1513782447.45,30641,6.69,73444.3,-14.25,-15.81,-15.95,0,*67
1513782448.7,30642,6.69,73438.0,-14.27,-15.89,-16.03,0,*62
1513782449.95,30643,6.69,73442.8,-14.27,-15.89,-16.03,0,*63
1513782451.17,30644,6.69,73442.8,-14.27,-15.75,-16.03,0,*67
1513782452.44,30645,6.69,73450.0,-14.25,-15.81,-15.95,0,*63
1513782453.69,30646,6.69,73450.5,-14.25,-15.71,-15.95,0,*6F
1513782454.94,30647,6.69,73444.5,-14.25,-15.67,-15.95,0,*69
1513782456.21,30648,6.69,73446.5,-14.27,-15.85,-15.89,0,*65
1513782457.46,30649,6.69,73440.3,-14.27,-15.75,-15.89,0,*6B
1513782458.71,30650,6.69,73442.8,-14.27,-15.71,-15.85,0,*6B
1513782460.01,30651,6.69,73454.0,-14.25,-15.81,-15.81,0,*63
1513782461.28,30652,6.69,73452.5,-14.25,-15.67,-15.81,0,*68
1513782462.56,30653,6.69,73450.8,-14.25,-15.71,-15.81,0,*6E
1513782463.86,30654,6.69,73456.3,-14.25,-15.57,-15.81,0,*6D
1513782465.13,30655,6.69,73446.3,-14.25,-15.57,-15.71,0,*63
1513782466.39,30656,6.69,73442.8,-14.25,-15.57,-15.67,0,*67
1513782467.66,30657,6.69,73436.0,-14.25,-15.57,-15.67,0,*66
1513782468.91,30658,6.69,73436.8,-14.25,-15.53,-15.67,0,*6D
1513782470.18,30659,6.69,73444.0,-14.25,-15.57,-15.71,0,*6F
1513782471.45,30660,6.69,73442.8,-14.25,-15.67,-15.85,0,*6D
1513782472.73,30661,6.69,73442.0,-14.25,-15.71,-15.85,0,*6B
1513782474.0,30662,6.69,73444.8,-14.25,-15.67,-15.81,0,*6B
1513782475.27,30663,6.69,73442.3,-14.25,-15.81,-15.95,0,*67
1513782476.55,30664,6.69,73450.3,-14.25,-15.81,-15.95,0,*60
1513782477.82,30665,6.69,73450.0,-14.25,-15.81,-15.95,0,*61
1513782479.09,30666,6.69,73450.8,-14.25,-15.81,-15.99,0,*6E
1513782480.33,30667,6.69,73446.8,-14.25,-15.95,-15.99,0,*6A
1513782481.61,30668,6.69,73450.8,-14.25,-15.95,-16.09,0,*6F
1513782482.88,30669,6.69,73454.3,-14.25,-15.95,-16.13,0,*65
1513782484.15,30670,6.69,73446.8,-14.27,-15.89,-16.13,0,*62
1513782485.37,30671,6.69,73444.8,-14.27,-15.99,-16.03,0,*63
1513782486.64,30672,6.69,73450.0,-14.25,-15.95,-16.13,0,*6F
1513782487.91,30673,6.69,73448.8,-14.25,-15.99,-16.09,0,*69
1513782489.18,30674,6.69,73446.0,-14.25,-15.99,-16.09,0,*6E
1513782490.45,30675,6.69,73454.8,-14.27,-16.17,-16.23,0,*60
1513782491.69,30676,6.69,73454.3,-14.27,-16.23,-16.37,0,*61
1513782492.93,30677,6.69,73444.5,-14.27,-16.51,-16.45,0,*60
1513782494.18,30678,6.69,73440.0,-14.27,-16.59,-16.51,0,*62
1513782495.4,30679,6.69,73440.3,-14.27,-16.89,-16.79,0,*64
1513782496.64,30680,6.69,73440.3,-14.27,-16.79,-16.65,0,*60
1513782497.89,30681,6.69,73442.3,-14.27,-16.65,-16.37,0,*6B
1513782499.16,30682,6.69,73448.5,-14.27,-16.51,-16.31,0,*69
1513782500.41,30683,6.69,73448.5,-14.27,-16.45,-16.17,0,*69
1513782501.67,30684,6.69,73444.5,-14.27,-16.31,-16.13,0,*69
1513782502.92,30685,6.69,73440.8,-14.27,-16.17,-16.03,0,*6D
1513782504.17,30686,6.69,73446.8,-14.27,-16.13,-15.99,0,*6A